Time,TemperatureF,DewpointF,PressureIn,WindDirection,WindDirectionDegrees,WindSpeedMPH,WindSpeedGustMPH,Humidity,HourlyPrecipIn,Conditions,Clouds,dailyrainin,SoftwareType,DateUTC
2013-10-09 00:12:00,53.1,46.4,30.05,ENE,67,1.7,-999.0,78,-99.99,,,0.00,Acu-Link.com,2013-10-09 04:12:00,
2013-10-09 00:27:00,52.5,46.5,30.05,NNE,22,2.2,-999.0,80,-99.99,,,0.00,Acu-Link.com,2013-10-09 04:27:00,
2013-10-09 00:42:00,51.8,46.2,30.05,ESE,112,0.0,-999.0,81,-99.99,,,0.00,Acu-Link.com,2013-10-09 04:42:00,
2013-10-09 00:58:00,51.3,46.0,30.04,West,270,0.0,-999.0,82,-99.99,,,0.00,Acu-Link.com,2013-10-09 04:58:00,
2013-10-09 01:13:00,51.3,46.0,30.04,NE,45,0.0,-999.0,82,-99.99,,,0.00,Acu-Link.com,2013-10-09 05:13:00,
2013-10-09 01:28:00,51.4,46.1,30.04,SE,135,1.7,-999.0,82,-99.99,,,0.00,Acu-Link.com,2013-10-09 05:28:00,
2013-10-09 01:43:00,51.1,46.1,30.04,SE,135,0.0,-999.0,83,-99.99,,,0.00,Acu-Link.com,2013-10-09 05:43:00,
2013-10-09 01:58:00,50.9,45.9,30.04,ESE,112,0.0,-999.0,83,-99.99,,,0.00,Acu-Link.com,2013-10-09 05:58:00,
2013-10-09 02:13:00,50.9,45.9,30.03,South,180,0.0,-999.0,83,-99.99,,,0.00,Acu-Link.com,2013-10-09 06:13:00,
2013-10-09 02:30:00,50.7,45.7,30.04,NNE,22,0.0,-999.0,83,-99.99,,,0.00,Acu-Link.com,2013-10-09 06:30:00,
2013-10-09 02:45:00,50.7,45.7,30.04,NE,45,2.2,-999.0,83,-99.99,,,0.00,Acu-Link.com,2013-10-09 06:45:00,
2013-10-09 03:00:00,50.4,45.8,30.04,NW,315,0.0,-999.0,84,-99.99,,,0.00,Acu-Link.com,2013-10-09 07:00:00,
2013-10-09 03:16:00,50.4,45.8,30.04,North,0,0.0,-999.0,84,-99.99,,,0.00,Acu-Link.com,2013-10-09 07:16:00,
2013-10-09 03:31:00,50.2,45.6,30.04,NW,315,0.0,-999.0,84,-99.99,,,0.00,Acu-Link.com,2013-10-09 07:31:00,
2013-10-09 03:46:00,49.8,45.5,30.04,North,0,1.1,-999.0,85,-99.99,,,0.00,Acu-Link.com,2013-10-09 07:46:00,
2013-10-09 04:01:00,50.0,45.7,30.02,ENE,67,1.7,-999.0,85,-99.99,,,0.00,Acu-Link.com,2013-10-09 08:01:00,
2013-10-09 04:17:00,49.6,45.6,30.03,ENE,67,0.0,-999.0,86,-99.99,,,0.00,Acu-Link.com,2013-10-09 08:17:00,
2013-10-09 04:32:00,49.5,45.5,30.02,North,0,0.0,-999.0,86,-99.99,,,0.00,Acu-Link.com,2013-10-09 08:32:00,
2013-10-09 04:47:00,49.1,45.4,30.03,NNW,337,0.0,-999.0,87,-99.99,,,0.00,Acu-Link.com,2013-10-09 08:47:00,
2013-10-09 05:02:00,48.2,45.1,30.03,NNW,337,0.0,-999.0,89,-99.99,,,0.00,Acu-Link.com,2013-10-09 09:02:00,
2013-10-09 05:17:00,47.7,44.9,30.02,North,0,0.0,-999.0,90,-99.99,,,0.00,Acu-Link.com,2013-10-09 09:17:00,
2013-10-09 05:32:00,47.1,44.9,30.02,North,0,0.0,-999.0,92,-99.99,,,0.00,Acu-Link.com,2013-10-09 09:32:00,
2013-10-09 05:47:00,46.9,44.7,30.03,North,0,0.0,-999.0,92,-99.99,,,0.00,Acu-Link.com,2013-10-09 09:47:00,
2013-10-09 06:02:00,46.8,44.9,30.03,North,0,0.0,-999.0,93,-99.99,,,0.00,Acu-Link.com,2013-10-09 10:02:00,
2013-10-09 06:18:00,45.7,44.6,30.04,North,0,0.0,-999.0,96,-99.99,,,0.00,Acu-Link.com,2013-10-09 10:18:00,
2013-10-09 06:33:00,45.5,44.4,30.05,North,0,0.0,-999.0,96,-99.99,,,0.00,Acu-Link.com,2013-10-09 10:33:00,
2013-10-09 06:48:00,45.3,44.2,30.04,North,0,0.0,-999.0,96,-99.99,,,0.00,Acu-Link.com,2013-10-09 10:48:00,
2013-10-09 07:03:00,45.5,44.4,30.05,North,0,0.0,-999.0,96,-99.99,,,0.00,Acu-Link.com,2013-10-09 11:03:00,
2013-10-09 07:18:00,45.5,44.4,30.05,NNE,22,0.0,-999.0,96,-99.99,,,0.00,Acu-Link.com,2013-10-09 11:18:00,
2013-10-09 07:34:00,46.0,44.9,30.06,West,270,0.0,-999.0,96,-99.99,,,0.00,Acu-Link.com,2013-10-09 11:34:00,
2013-10-09 07:49:00,46.4,45.3,30.05,WSW,247,1.1,-999.0,96,-99.99,,,0.00,Acu-Link.com,2013-10-09 11:49:00,
2013-10-09 08:04:00,46.4,45.3,30.06,North,0,0.0,-999.0,96,-99.99,,,0.00,Acu-Link.com,2013-10-09 12:04:00,
2013-10-09 08:19:00,47.3,45.9,30.06,WNW,292,0.0,-999.0,95,-99.99,,,0.00,Acu-Link.com,2013-10-09 12:19:00,
2013-10-09 08:34:00,53.2,48.5,30.07,SE,135,2.2,-999.0,84,-99.99,,,0.00,Acu-Link.com,2013-10-09 12:34:00,
2013-10-09 08:50:00,56.7,48.9,30.07,SE,135,2.2,-999.0,75,-99.99,,,0.00,Acu-Link.com,2013-10-09 12:50:00,
2013-10-09 09:05:00,58.6,49.6,30.07,ESE,112,1.7,-999.0,72,-99.99,,,0.00,Acu-Link.com,2013-10-09 13:05:00,
2013-10-09 09:20:00,60.8,50.2,30.08,SE,135,2.2,-999.0,68,-99.99,,,0.00,Acu-Link.com,2013-10-09 13:20:00,
2013-10-09 09:36:00,63.0,51.0,30.08,WNW,292,2.2,-999.0,65,-99.99,,,0.00,Acu-Link.com,2013-10-09 13:36:00,
2013-10-09 09:51:00,64.0,51.1,30.08,NNE,22,2.7,-999.0,63,-99.99,,,0.00,Acu-Link.com,2013-10-09 13:51:00,
2013-10-09 10:06:00,65.1,51.3,30.09,SE,135,3.7,-999.0,61,-99.99,,,0.00,Acu-Link.com,2013-10-09 14:06:00,
2013-10-09 10:21:00,66.2,52.8,30.09,SE,135,2.2,-999.0,62,-99.99,,,0.00,Acu-Link.com,2013-10-09 14:21:00,
2013-10-09 10:36:00,68.7,53.3,30.09,SSE,157,1.7,-999.0,58,-99.99,,,0.00,Acu-Link.com,2013-10-09 14:36:00,
2013-10-09 10:52:00,69.3,53.9,30.09,NNW,337,1.7,-999.0,58,-99.99,,,0.00,Acu-Link.com,2013-10-09 14:52:00,
2013-10-09 11:07:00,70.2,54.2,30.09,ESE,112,2.7,-999.0,57,-99.99,,,0.00,Acu-Link.com,2013-10-09 15:07:00,
2013-10-09 11:22:00,69.6,54.2,30.09,ESE,112,2.7,-999.0,58,-99.99,,,0.00,Acu-Link.com,2013-10-09 15:22:00,
2013-10-09 11:37:00,72.5,54.9,30.08,SE,135,3.7,-999.0,54,-99.99,,,0.00,Acu-Link.com,2013-10-09 15:37:00,
2013-10-09 11:52:00,74.8,56.0,30.08,South,180,0.0,-999.0,52,-99.99,,,0.00,Acu-Link.com,2013-10-09 15:52:00,
2013-10-09 12:08:00,74.8,55.4,30.08,WSW,247,1.1,-999.0,51,-99.99,,,0.00,Acu-Link.com,2013-10-09 16:08:00,
2013-10-09 12:23:00,76.5,57.0,30.07,NNE,22,0.0,-999.0,51,-99.99,,,0.00,Acu-Link.com,2013-10-09 16:23:00,
2013-10-09 12:38:00,75.9,55.9,30.07,SSW,202,1.1,-999.0,50,-99.99,,,0.00,Acu-Link.com,2013-10-09 16:38:00,
2013-10-09 12:53:00,74.5,55.2,30.06,ENE,67,4.7,-999.0,51,-99.99,,,0.00,Acu-Link.com,2013-10-09 16:53:00,
2013-10-09 13:08:00,76.5,55.3,30.05,SSW,202,3.2,-999.0,48,-99.99,,,0.00,Acu-Link.com,2013-10-09 17:08:00,
2013-10-09 13:24:00,74.8,54.9,30.05,ESE,112,2.7,-999.0,50,-99.99,,,0.00,Acu-Link.com,2013-10-09 17:24:00,
2013-10-09 13:39:00,76.5,54.2,30.04,NW,315,2.2,-999.0,46,-99.99,,,0.00,Acu-Link.com,2013-10-09 17:39:00,
2013-10-09 13:54:00,78.3,55.2,30.03,ESE,112,2.2,-999.0,45,-99.99,,,0.00,Acu-Link.com,2013-10-09 17:54:00,
2013-10-09 14:09:00,76.8,54.4,30.02,ESE,112,2.2,-999.0,46,-99.99,,,0.00,Acu-Link.com,2013-10-09 18:09:00,
2013-10-09 14:25:00,75.0,52.8,30.02,SE,135,3.2,-999.0,46,-99.99,,,0.00,Acu-Link.com,2013-10-09 18:25:00,
2013-10-09 14:40:00,75.6,53.3,30.01,NE,45,5.3,-999.0,46,-99.99,,,0.00,Acu-Link.com,2013-10-09 18:40:00,
2013-10-09 14:55:00,78.6,56.1,30.00,ESE,112,1.1,-999.0,46,-99.99,,,0.00,Acu-Link.com,2013-10-09 18:55:00,
2013-10-09 15:10:00,81.1,55.8,29.99,SE,135,0.0,-999.0,42,-99.99,,,0.00,Acu-Link.com,2013-10-09 19:10:00,
2013-10-09 15:25:00,75.9,53.0,29.99,SE,135,3.2,-999.0,45,-99.99,,,0.00,Acu-Link.com,2013-10-09 19:25:00,
2013-10-09 15:41:00,82.2,55.4,29.99,SE,135,1.1,-999.0,40,-99.99,,,0.00,Acu-Link.com,2013-10-09 19:41:00,
2013-10-09 15:56:00,78.1,53.1,29.99,East,90,2.7,-999.0,42,-99.99,,,0.00,Acu-Link.com,2013-10-09 19:56:00,
2013-10-09 16:11:00,81.5,55.5,29.98,South,180,2.2,-999.0,41,-99.99,,,0.00,Acu-Link.com,2013-10-09 20:11:00,
2013-10-09 16:26:00,82.0,53.9,29.98,NNE,22,2.2,-999.0,38,-99.99,,,0.00,Acu-Link.com,2013-10-09 20:26:00,
2013-10-09 16:41:00,77.4,53.8,29.98,ESE,112,1.7,-999.0,44,-99.99,,,0.00,Acu-Link.com,2013-10-09 20:41:00,
2013-10-09 16:57:00,77.0,52.1,29.98,NW,315,1.7,-999.0,42,-99.99,,,0.00,Acu-Link.com,2013-10-09 20:57:00,
2013-10-09 17:12:00,76.1,52.0,29.98,NW,315,2.2,-999.0,43,-99.99,,,0.00,Acu-Link.com,2013-10-09 21:12:00,
2013-10-09 17:27:00,76.1,52.6,29.98,SE,135,0.0,-999.0,44,-99.99,,,0.00,Acu-Link.com,2013-10-09 21:27:00,
2013-10-09 17:42:00,75.0,52.2,29.98,NNW,337,1.1,-999.0,45,-99.99,,,0.00,Acu-Link.com,2013-10-09 21:42:00,
2013-10-09 17:57:00,77.4,51.8,29.98,WSW,247,0.0,-999.0,41,-99.99,,,0.00,Acu-Link.com,2013-10-09 21:57:00,
2013-10-09 18:13:00,75.4,50.7,29.98,WNW,292,0.0,-999.0,42,-99.99,,,0.00,Acu-Link.com,2013-10-09 22:13:00,
2013-10-09 18:28:00,73.9,48.7,29.98,ESE,112,1.1,-999.0,41,-99.99,,,0.00,Acu-Link.com,2013-10-09 22:28:00,
2013-10-09 18:43:00,71.2,48.2,29.98,ENE,67,1.7,-999.0,44,-99.99,,,0.00,Acu-Link.com,2013-10-09 22:43:00,
2013-10-09 18:58:00,68.5,47.5,29.98,ESE,112,0.0,-999.0,47,-99.99,,,0.00,Acu-Link.com,2013-10-09 22:58:00,
2013-10-09 19:14:00,66.4,48.7,29.98,SSE,157,0.0,-999.0,53,-99.99,,,0.00,Acu-Link.com,2013-10-09 23:14:00,
2013-10-09 19:29:00,63.9,48.8,29.99,ESE,112,0.0,-999.0,58,-99.99,,,0.00,Acu-Link.com,2013-10-09 23:29:00,
2013-10-09 19:44:00,61.9,48.7,29.99,ESE,112,0.0,-999.0,62,-99.99,,,0.00,Acu-Link.com,2013-10-09 23:44:00,
2013-10-09 19:59:00,60.3,48.1,29.99,ESE,112,0.0,-999.0,64,-99.99,,,0.00,Acu-Link.com,2013-10-09 23:59:00,
2013-10-09 20:14:00,59.2,49.0,30.00,ESE,112,0.0,-999.0,69,-99.99,,,0.00,Acu-Link.com,2013-10-10 00:14:00,
2013-10-09 20:30:00,57.9,48.2,29.99,ESE,112,0.0,-999.0,70,-99.99,,,0.00,Acu-Link.com,2013-10-10 00:30:00,
2013-10-09 20:45:00,57.0,48.1,30.00,ESE,112,0.0,-999.0,72,-99.99,,,0.00,Acu-Link.com,2013-10-10 00:45:00,
2013-10-09 21:00:00,56.1,48.3,30.00,ESE,112,0.0,-999.0,75,-99.99,,,0.00,Acu-Link.com,2013-10-10 01:00:00,
2013-10-09 21:15:00,55.4,49.0,30.00,ESE,112,0.0,-999.0,79,-99.99,,,0.00,Acu-Link.com,2013-10-10 01:15:00,
2013-10-09 21:30:00,54.9,49.2,30.00,ESE,112,0.0,-999.0,81,-99.99,,,0.00,Acu-Link.com,2013-10-10 01:30:00,
2013-10-09 21:46:00,54.1,48.4,30.01,SE,135,0.0,-999.0,81,-99.99,,,0.00,Acu-Link.com,2013-10-10 01:46:00,
2013-10-09 22:01:00,53.6,48.6,30.01,SE,135,0.0,-999.0,83,-99.99,,,0.00,Acu-Link.com,2013-10-10 02:01:00,
2013-10-09 22:16:00,53.2,48.8,30.00,ESE,112,0.0,-999.0,85,-99.99,,,0.00,Acu-Link.com,2013-10-10 02:16:00,
2013-10-09 22:31:00,53.1,49.3,30.01,ESE,112,0.0,-999.0,87,-99.99,,,0.00,Acu-Link.com,2013-10-10 02:31:00,
2013-10-09 22:46:00,53.2,49.7,30.01,East,90,0.0,-999.0,88,-99.99,,,0.00,Acu-Link.com,2013-10-10 02:46:00,
2013-10-09 23:02:00,53.1,49.3,30.01,North,0,0.0,-999.0,87,-99.99,,,0.00,Acu-Link.com,2013-10-10 03:02:00,
2013-10-09 23:17:00,52.5,49.4,30.01,North,0,0.0,-999.0,89,-99.99,,,0.00,Acu-Link.com,2013-10-10 03:17:00,
2013-10-09 23:32:00,52.0,48.6,30.01,North,0,0.0,-999.0,88,-99.99,,,0.00,Acu-Link.com,2013-10-10 03:32:00,
2013-10-09 23:47:00,51.6,48.8,30.00,North,0,0.0,-999.0,90,-99.99,,,0.00,Acu-Link.com,2013-10-10 03:47:00,